Weather in Reutovo

Russia / Oryol Oblast     53°25′15″N   35°40′48″E
temp.,
°C
wind,
m/s
gust,
m/s
humid.,
%
clouds,
%
prec.,
mm/h
press.,
hPa
HPBL,
m
8 may, sat
sat800:00+9sse41274100 0.0 1011363
03:00+8sse71594100 3.1 1009743
06:00+8sse81694100 2.4 1006951
09:00+9s71494100 4.5 1005741
12:00+9sse71496100 3.6 1003792
15:00+10s51197100 8.4 1001726
18:00+9wsw3795100 1.2 1002437
21:00+6nw61193100 2.2 1004706
9 may, sun
sun900:00+3wnw71597100 5.6 1007977
03:00+3wnw81497100 8.4 1011778
06:00+3wnw6138998 0.6 1013772
09:00+6nw6977100 0.6 10161124
12:00+6nw787376 0.2 10181244
15:00+8nnw695860 0.3 10201590
18:00+9nnw586010 0.1 10211377
21:00+5wnw33761 0.1 102433
10 may, mon
mon1000:00+3nw35791 0.0 102673
03:00+2nnw36760 0.0 102888
06:00+2nnw25760 0.0 103093
09:00+9n35555 0.0 1030486
12:00+13nne45445 0.0 10301384
15:00+14nne454391 0.0 10291647
18:00+13nne46560 0.0 1028771
21:00+8nne33780 0.0 102935
11 may, tue
tue1100:00+6ne34780 0.0 103066
03:00+4nne37780 0.0 1030116
06:00+5ne411790 0.0 1029250
09:00+11ne712580 0.0 1029716
12:00+15ene710495 0.0 1027989
15:00+16ene78575 0.0 10261072
18:00+15e597295 0.0 1026967
21:00+10ne34915 0.0 102661
12 may, wed
wed1200:00+9ne399335 0.0 1025173
03:00+9ne5118991 0.0 1023356
06:00+10e4893100 0.0 1023427
09:00+9se2593100 0.4 1024282
12:00+10ene348784 1.7 1023316
15:00+15ese466381 1.7 10221483
18:00+14ene36775 0.1 1021393
21:00+10ene359163 0.1 102092